Wind_Speed
15 15 15 15 16 15 15 15 14 14 14 13 12 12 12 11 11 11 10 9 8 8 8 8 8 8 8 8 7 7 7 7 7 8 8 8 8 9 9 10 9 9 9
15 14 14 15 15 15 16 15 15 15 14 14 13 13 13 12 11 11 11 10 9 9 9 9 8 8 7 7 7 7 6 7 7 8 8 8 8 9 9 9 9 9 9
15 15 15 15 16 15 16 16 16 16 15 15 14 13 13 12 11 11 11 10 10 10 9 9 8 8 8 7 7 7 6 7 7 8 8 8 8 9 9 9 9 9 10
16 16 15 16 16 16 16 16 16 16 15 15 14 13 12 12 11 11 11 10 10 10 9 9 9 8 8 7 7 7 7 7 7 8 8 8 8 9 9 8 9 9 9
15 15 15 15 16 17 16 16 16 16 16 15 14 14 14 13 12 12 12 12 11 11 10 9 9 9 8 8 8 7 7 7 7 8 8 8 8 8 8 8 8 9 9
16 16 16 16 16 16 16 16 16 16 16 15 14 14 14 13 13 12 12 12 12 11 10 9 9 9 8 8 8 7 7 7 8 8 8 8 8 8 8 9 9 9 10
15 15 15 16 15 15 15 16 16 16 15 15 15 15 14 13 13 12 12 11 11 11 10 9 9 8 8 8 8 8 8 8 8 8 8 8 8 8 9 9 9 9 10
15 14 14 15 15 15 16 15 16 16 15 15 15 15 14 13 13 12 12 11 10 10 9 9 9 8 8 8 8 8 9 9 9 9 9 9 9 9 9 9 9 10 11
15 15 15 15 15 15 15 16 16 16 15 15 15 15 15 14 14 13 12 12 11 10 10 10 9 9 9 9 8 9 9 10 10 10 10 10 10 10 10 11 11 11 11
14 15 15 15 15 16 16 16 15 15 15 16 15 15 15 15 15 14 12 12 11 10 10 10 10 10 10 9 9 9 9 10 10 10 10 11 11 12 12 12 12 12 12
14 14 15 15 16 16 17 16 16 16 16 16 16 16 16 16 15 14 13 13 12 11 11 11 11 11 11 10 10 10 10 10 10 11 11 12 12 12 12 13 12 13 13
14 14 15 16 16 17 17 17 16 16 16 17 16 15 15 15 15 15 14 14 13 12 12 12 11 11 11 11 11 10 10 10 11 11 12 12 13 13 13 13 13 13 13
15 15 15 16 16 16 17 17 17 16 16 16 15 15 14 14 14 14 14 14 13 12 12 11 11 11 11 11 11 11 10 11 11 12 12 12 13 13 14 14 14 14 15
14 15 15 16 17 17 17 17 17 17 16 16 16 15 14 14 14 15 14 14 14 13 13 12 12 12 12 12 12 11 11 12 13 13 13 13 14 14 14 14 14 15 15
14 15 15 16 16 17 17 17 17 17 17 17 16 16 15 15 14 14 14 14 14 14 14 13 13 13 13 13 12 12 12 12 13 13 13 14 14 14 14 14 14 15 15
14 15 15 15 15 15 16 16 17 17 17 17 17 17 16 15 15 15 14 14 14 14 14 14 14 14 14 14 14 14 13 13 13 13 14 14 14 14 14 14 15 15 16
15 15 15 15 15 14 15 16 16 17 17 17 17 17 17 16 16 16 15 15 14 14 14 14 14 15 15 14 14 14 13 13 14 14 14 14 14 14 14 15 15 16 16
15 15 15 15 15 15 15 16 16 17 17 18 18 18 17 17 17 16 15 15 15 14 14 14 14 14 15 14 14 15 14 14 14 15 15 15 14 15 16 17 17 18 18
15 16 15 16 16 16 16 17 17 18 18 18 18 18 18 18 17 16 16 15 15 15 15 14 15 15 15 15 14 14 14 14 15 15 15 16 16 16 17 18 19 19 20
14 15 16 17 17 16 16 17 17 18 18 18 18 18 18 18 18 17 17 16 16 16 16 16 16 16 16 16 16 16 16 16 16 16 16 16 17 18 18 19 20 21 22
14 14 15 16 16 16 17 17 17 17 17 18 18 18 17 17 17 17 17 17 17 17 17 17 17 17 17 17 17 16 16 17 16 17 17 18 18 19 20 21 22 23 23
14 14 14 15 15 16 16 17 17 17 17 18 18 17 16 16 16 17 17 17 17 17 17 17 17 17 16 16 17 17 17 17 17 18 18 19 19 20 21 22 23 23 25
13 13 14 14 15 15 15 16 17 17 17 18 18 18 17 17 17 17 17 17 17 17 17 17 17 17 17 17 17 17 17 18 19 19 19 20 21 22 23 24 24 25 26
13 13 13 13 14 14 15 15 15 16 17 17 17 18 18 18 18 17 17 17 17 17 17 17 17 17 18 18 18 18 19 19 20 21 21 22 23 24 24 25 25 26 27
14 14 13 14 14 14 15 15 15 16 17 17 17 17 17 17 18 18 18 18 18 18 17 17 18 18 19 19 20 20 20 21 22 22 23 24 24 25 25 26 27 27 28
16 16 15 15 15 16 15 15 15 16 16 17 17 17 17 17 18 18 19 19 19 19 19 18 19 19 20 21 21 22 22 23 23 24 24 25 25 26 26 27 28 29 30
Wind_Direction
233 234 233 234 233 232 232 234 235 234 233 233 234 236 238 241 245 247 246 250 259 268 272 274 276 278 281 285 290 295 302 308 308 305 304 300 297 293 289 285 278 278 275
239 237 236 237 237 234 231 234 238 236 236 236 237 240 241 242 246 248 245 249 256 263 268 270 270 273 277 282 289 297 304 311 313 310 306 301 298 296 295 292 288 282 278
236 240 243 243 240 236 234 234 236 236 236 236 238 243 239 241 247 243 240 246 253 259 265 269 265 267 272 278 287 293 301 309 312 311 307 302 298 297 298 295 292 290 284
239 241 242 245 241 237 236 237 238 234 234 234 236 238 240 243 249 246 245 245 248 254 261 261 261 262 267 275 281 286 292 300 307 309 308 306 302 299 296 293 289 288 289
242 242 241 242 239 237 238 241 238 236 235 236 238 239 244 246 249 251 253 253 252 252 253 256 260 259 264 272 276 280 286 295 304 308 311 310 307 302 299 293 292 293 292
243 243 244 244 241 237 238 241 240 239 237 237 241 243 247 246 247 249 251 253 255 251 252 256 259 258 263 271 276 279 282 291 301 306 306 305 306 305 303 299 296 296 295
245 242 245 243 240 238 239 241 240 238 238 239 241 244 245 245 246 249 253 253 253 252 251 253 255 257 263 268 275 280 286 292 296 299 298 298 302 304 304 302 301 300 298
246 242 243 242 240 238 239 242 241 239 240 241 242 244 245 246 247 250 254 256 253 252 253 253 250 256 262 267 272 278 284 289 291 293 292 295 298 301 302 303 304 303 300
245 243 240 239 235 237 241 242 242 241 241 240 241 245 246 248 247 247 254 254 250 250 248 250 252 257 264 268 273 279 283 287 290 292 294 295 297 297 300 301 303 305 305
245 245 244 235 233 238 240 241 240 240 242 243 243 246 247 247 246 247 250 250 248 250 247 247 253 259 264 266 270 277 282 285 288 290 292 296 297 294 296 299 302 305 307
247 246 243 238 238 240 240 241 242 242 243 244 246 245 244 243 244 246 247 248 248 252 250 249 254 260 263 265 270 274 280 283 287 290 293 296 298 298 299 300 300 302 304
243 242 243 240 238 240 239 241 243 243 244 246 246 244 245 243 243 244 246 245 247 250 252 251 254 261 265 265 267 273 280 284 289 292 294 298 299 298 299 301 301 301 303
239 242 244 243 240 241 242 242 243 245 245 245 245 242 243 242 240 241 244 245 247 250 252 252 255 260 265 270 272 272 279 284 288 291 294 297 298 299 302 302 301 302 302
239 243 244 242 241 243 243 242 243 245 245 243 242 240 240 242 241 241 242 243 245 247 250 252 256 261 265 270 275 272 276 282 285 290 292 295 297 300 301 301 301 304 304
242 243 242 242 244 243 243 242 244 244 243 242 240 238 238 240 241 243 243 243 244 246 249 252 256 261 264 268 272 274 277 282 285 287 291 294 297 300 301 302 302 304 304
242 241 241 242 241 240 243 243 241 242 241 239 238 238 238 240 241 242 244 245 246 247 250 254 257 259 261 266 272 275 279 283 289 291 290 294 296 299 301 302 303 304 304
243 240 240 241 237 238 242 242 241 240 239 238 238 239 240 241 242 243 243 244 248 250 253 256 257 257 261 267 271 277 280 284 289 291 294 297 296 295 299 302 303 305 306
242 242 240 238 239 242 243 240 240 240 239 238 237 237 240 242 244 242 241 243 248 251 253 256 257 259 262 266 270 274 282 283 287 291 292 294 295 295 295 297 299 301 303
242 242 242 240 241 244 244 241 241 241 241 238 238 239 240 243 243 242 243 245 248 252 253 255 257 260 262 266 271 275 280 284 287 291 291 293 292 295 296 295 296 298 301
242 241 241 239 241 244 243 243 241 240 239 237 238 239 241 241 240 241 242 245 248 252 256 255 257 260 261 264 270 272 278 282 286 290 291 293 292 292 294 296 297 298 299
243 242 243 243 244 243 243 244 242 239 237 234 235 238 240 241 240 241 242 246 249 253 257 257 258 261 262 263 267 271 276 280 285 290 291 292 293 293 294 295 298 298 298
243 243 245 245 247 246 246 243 243 240 234 233 236 238 239 241 241 242 243 245 248 252 256 258 259 261 262 264 269 273 277 280 286 290 291 293 293 294 295 296 298 299 300
246 247 247 247 247 246 245 243 242 237 233 236 237 239 242 243 243 246 246 248 252 254 258 259 262 264 266 269 271 273 277 281 286 289 291 293 294 294 295 296 298 299 301
252 252 252 251 249 247 245 243 242 240 238 240 240 241 243 244 245 248 250 252 254 256 260 259 261 262 264 268 271 275 278 282 284 287 289 291 294 294 295 296 298 300 302
251 252 254 251 249 249 245 243 243 243 241 242 241 242 244 245 247 250 252 254 256 257 258 259 261 262 263 267 271 276 280 282 285 287 288 291 294 295 295 297 299 301 303
252 252 253 252 249 248 247 245 244 245 246 247 244 244 247 251 252 252 253 254 255 256 257 259 262 265 268 269 272 277 281 284 287 291 291 292 294 296 296 297 300 302 304
Height
5868 5869 5870 5872 5873 5875 5876 5877 5879 5880 5881 5882 5883 5884 5885 5886 5887 5887 5887 5888 5888 5888 5888 5887 5887 5887 5886 5886 5885 5884 5883 5882 5880 5879 5878 5877 5875 5874 5873 5872 5871 5869 5868
5865 5866 5868 5869 5871 5872 5873 5875 5876 5877 5878 5880 5881 5882 5883 5884 5884 5885 5885 5885 5886 5886 5886 5886 5885 5885 5885 5884 5883 5883 5882 5880 5879 5878 5876 5875 5875 5873 5872 5870 5869 5868 5867
5862 5864 5865 5867 5868 5869 5870 5872 5873 5874 5876 5877 5878 5879 5880 5881 5882 5882 5883 5883 5883 5884 5884 5883 5883 5883 5883 5883 5882 5881 5880 5879 5878 5876 5875 5874 5873 5872 5870 5869 5868 5867 5865
5860 5861 5862 5863 5865 5866 5868 5869 5870 5871 5873 5875 5876 5877 5878 5879 5879 5880 5880 5881 5881 5882 5882 5881 5882 5882 5881 5881 5880 5880 5879 5878 5877 5875 5874 5872 5871 5870 5869 5868 5866 5865 5864
5857 5858 5859 5861 5861 5863 5864 5866 5867 5869 5870 5872 5873 5874 5875 5876 5877 5877 5878 5878 5879 5879 5880 5879 5879 5880 5880 5879 5879 5878 5877 5876 5875 5874 5872 5871 5869 5868 5867 5866 5865 5864 5863
5853 5855 5856 5857 5859 5860 5862 5863 5865 5866 5867 5869 5870 5871 5873 5873 5874 5875 5875 5876 5877 5877 5877 5877 5877 5877 5878 5877 5877 5876 5875 5875 5873 5872 5871 5870 5868 5867 5865 5864 5863 5862 5861
5850 5851 5852 5854 5855 5857 5858 5860 5862 5863 5865 5866 5867 5868 5870 5871 5871 5872 5873 5873 5874 5875 5875 5875 5875 5876 5875 5875 5875 5874 5874 5873 5872 5870 5869 5868 5867 5865 5864 5863 5861 5860 5858
5846 5848 5849 5850 5852 5854 5855 5857 5858 5860 5861 5863 5864 5865 5867 5868 5869 5869 5870 5871 5871 5872 5872 5873 5873 5873 5873 5873 5873 5872 5871 5871 5870 5868 5867 5866 5865 5864 5862 5861 5859 5858 5856
5843 5844 5846 5847 5849 5850 5852 5853 5855 5856 5858 5859 5861 5862 5864 5865 5866 5867 5868 5868 5869 5869 5870 5871 5871 5871 5871 5871 5870 5870 5869 5868 5867 5866 5865 5864 5863 5861 5860 5859 5857 5856 5854
5839 5841 5842 5843 5845 5847 5848 5850 5851 5853 5855 5856 5857 5859 5860 5862 5863 5864 5865 5866 5866 5867 5868 5868 5868 5869 5869 5868 5868 5867 5867 5866 5865 5864 5863 5862 5860 5859 5858 5856 5854 5852 5851
5836 5837 5839 5840 5841 5843 5845 5846 5848 5850 5851 5853 5854 5855 5857 5858 5860 5861 5862 5863 5864 5864 5865 5865 5866 5866 5866 5866 5866 5865 5865 5864 5863 5862 5860 5859 5858 5856 5855 5853 5851 5850 5848
5833 5834 5835 5836 5838 5839 5841 5843 5844 5846 5848 5849 5850 5852 5853 5855 5856 5857 5859 5860 5861 5861 5862 5862 5863 5863 5863 5863 5863 5863 5862 5861 5860 5859 5858 5856 5855 5853 5852 5850 5848 5847 5844
5829 5830 5831 5833 5834 5836 5837 5839 5841 5842 5844 5845 5847 5848 5850 5851 5852 5853 5855 5856 5857 5858 5859 5859 5860 5860 5860 5860 5860 5860 5859 5858 5857 5856 5855 5854 5852 5850 5849 5847 5845 5843 5841
5825 5826 5827 5829 5830 5832 5833 5835 5837 5838 5840 5841 5843 5845 5846 5848 5849 5850 5851 5852 5853 5855 5855 5856 5857 5857 5857 5857 5857 5856 5856 5855 5854 5853 5852 5850 5849 5847 5845 5844 5842 5840 5838
5821 5823 5824 5825 5826 5828 5829 5831 5832 5834 5836 5838 5839 5841 5843 5844 5845 5846 5847 5848 5850 5851 5852 5853 5853 5854 5854 5854 5854 5853 5853 5852 5850 5849 5848 5847 5845 5843 5842 5840 5838 5837 5835
5817 5819 5820 5821 5822 5824 5825 5827 5828 5830 5832 5834 5836 5837 5839 5840 5841 5843 5844 5845 5846 5847 5848 5849 5850 5850 5850 5851 5850 5850 5849 5848 5847 5845 5844 5843 5842 5840 5838 5837 5835 5833 5831
5814 5815 5816 5817 5819 5820 5822 5823 5825 5826 5828 5830 5831 5833 5834 5836 5837 5839 5840 5841 5842 5843 5845 5845 5845 5846 5846 5846 5846 5846 5845 5844 5843 5842 5841 5839 5837 5836 5835 5833 5831 5829 5827
5810 5811 5812 5814 5815 5817 5818 5819 5820 5822 5824 5825 5827 5829 5830 5832 5833 5835 5836 5837 5838 5839 5840 5841 5841 5842 5842 5842 5842 5842 5841 5840 5839 5838 5836 5835 5833 5832 5830 5829 5827 5825 5823
5806 5807 5808 5810 5811 5812 5814 5815 5816 5818 5819 5821 5823 5824 5826 5827 5829 5830 5832 5833 5834 5835 5836 5837 5837 5838 5838 5838 5838 5837 5836 5836 5835 5834 5832 5830 5829 5827 5826 5824 5822 5820 5818
5802 5803 5804 5806 5807 5808 5809 5810 5811 5813 5814 5816 5818 5820 5821 5823 5824 5826 5827 5829 5830 5831 5832 5832 5833 5833 5833 5833 5833 5833 5832 5831 5830 5829 5828 5826 5824 5823 5821 5819 5817 5815 5813
5798 5800 5801 5802 5803 5804 5804 5806 5807 5808 5810 5812 5814 5815 5817 5818 5819 5821 5822 5824 5825 5826 5827 5827 5828 5828 5828 5828 5828 5828 5828 5827 5825 5824 5823 5821 5819 5818 5816 5814 5811 5809 5806
5794 5796 5797 5798 5798 5799 5800 5801 5803 5804 5806 5808 5809 5811 5812 5814 5815 5816 5818 5819 5820 5821 5822 5823 5823 5823 5823 5823 5823 5823 5823 5822 5821 5819 5818 5816 5814 5812 5810 5808 5806 5803 5800
5791 5792 5793 5794 5794 5795 5796 5797 5798 5800 5802 5804 5805 5807 5808 5809 5810 5812 5813 5815 5816 5817 5817 5818 5818 5818 5818 5818 5818 5818 5817 5816 5815 5814 5812 5810 5808 5806 5804 5802 5799 5796 5793
5787 5788 5789 5790 5790 5791 5792 5793 5795 5796 5798 5799 5801 5802 5803 5805 5806 5807 5808 5810 5811 5811 5812 5812 5813 5813 5813 5813 5813 5812 5812 5811 5809 5808 5806 5804 5802 5800 5798 5795 5792 5790 5786
5783 5784 5785 5786 5787 5787 5788 5789 5790 5792 5793 5795 5796 5797 5799 5800 5801 5802 5803 5804 5805 5806 5807 5807 5807 5807 5808 5808 5807 5807 5806 5805 5803 5801 5800 5798 5795 5793 5791 5788 5785 5782 5779
5779 5780 5781 5781 5782 5783 5784 5785 5786 5787 5789 5790 5791 5792 5794 5795 5795 5797 5798 5799 5800 5800 5801 5801 5802 5802 5802 5801 5801 5800 5799 5798 5797 5795 5793 5790 5788 5786 5783 5780 5777 5774 5771